This is the latest recevied weather packets stored in our database for station/object KI4BSX. If no packets are shown the sender has not sent any weather packets the latest 10 day(s).
| Time | Temp. | Humidity | Pressure | Rain* | Wind** | Luminosity | Snow |
|---|---|---|---|---|---|---|---|
| 1778137381 | 17.22° C | 99% | 1014.1 hPa | 1.27 mm | - | - | - |
| 1778137077 | 17.22° C | 99% | 1014 hPa | 1.78 mm | - | - | - |
| 1778136774 | 17.22° C | 99% | 1014.3 hPa | 1.78 mm | - | - | - |
| 1778136471 | 17.22° C | 99% | 1014.6 hPa | 1.78 mm | - | - | - |
| 1778136170 | 17.22° C | 99% | 1014.6 hPa | 1.78 mm | - | - | - |
| 1778135867 | 17.22° C | 99% | 1014.1 hPa | 3.05 mm | - | - | - |
| 1778135564 | 17.22° C | 99% | 1014.2 hPa | 4.83 mm | - | - | - |
| 1778135260 | 17.78° C | 99% | 1014.5 hPa | 4.32 mm | - | - | - |
| 1778134958 | 17.22° C | 99% | 1014.9 hPa | 4.32 mm | - | - | - |
| 1778134656 | 17.22° C | 99% | 1014.7 hPa | 6.1 mm | - | - | - |
| 1778134353 | 17.78° C | 99% | 1014.6 hPa | 7.87 mm | - | - | - |
| 1778134052 | 17.78° C | 99% | 1014.6 hPa | 6.1 mm | - | - | - |
| 1778133748 | 17.78° C | 99% | 1015.5 hPa | 7.87 mm | - | - | - |
| 1778133444 | 17.78° C | 99% | 1015.6 hPa | 8.89 mm | - | - | - |
| 1778133140 | 17.78° C | 99% | 1015.5 hPa | 6.1 mm | - | - | - |
| 1778132836 | 17.78° C | 99% | 1015.3 hPa | 6.6 mm | - | - | - |
| 1778132533 | 17.78° C | 99% | 1015.4 hPa | 7.87 mm | - | - | - |
| 1778132231 | 17.78° C | 99% | 1015 hPa | 13.21 mm | - | - | - |
| 1778131928 | 17.78° C | 99% | 1015.7 hPa | 13.72 mm | - | - | - |
| 1778131627 | 17.78° C | 99% | 1016.1 hPa | 12.7 mm | - | - | - |
| 1778131322 | 17.78° C | 99% | 1016 hPa | 11.94 mm | - | - | - |
| 1778131021 | 17.78° C | 99% | 1016 hPa | 11.94 mm | - | - | - |
| 1778130717 | 17.78° C | 99% | 1016 hPa | 10.67 mm | - | - | - |
| 1778130414 | 17.78° C | 99% | 1016 hPa | 11.94 mm | - | - | - |
| 1778130110 | 17.78° C | 99% | 1016.1 hPa | 7.11 mm | - | - | - |
* Rain latest hour (hover to see other rain measurements)
** Current wind speed in m/s (hover to see current wind gust speed)